[[{"header":{"parameterUnit":"m.s-1","parameterCategory":1,"la1":30.2991,"la2":30.254,"lo1":-89.0895,"lo2":-89.0444,"dy":0.0017,"dx":0.0017,"nx":28,"ny":28,"refTime":"2024-10-09T03:00:00:Z","depth":0,"parameterNumber":2,"parameterNumberName":"U-component_of_WINDS"},"data":[0,0,0,0,0,0,0,0,0,0,0,0,0,0,0,0,0,0,0,0,0,0,0,0,0,0,0,0,0,0,0,0,0,0,0,0,0,0,0,0,0,0,0,0,0,0,0,0,0,0,0,0,0,0,0,0,0,0,-0.3126,-0.3126,0,-0.3101,-0.31,-0.31,-0.3081,-0.3081,-0.3081,-0.3081,-0.3054,-0.3053,-0.3053,0,0,0,0,0,0,0,0,0,0,0,0,0,-0.3158,-0.3158,-0.3126,-0.3126,-0.3126,-0.3101,-0.31,-0.31,-0.3081,-0.3081,-0.3081,-0.3081,-0.3054,-0.3053,-0.3053,0,0,0,0,0,0,0,0,0,0,0,0,0,-0.314,-0.3158,-0.3127,-0.3113,-0.3112,-0.3101,-0.31,-0.31,-0.3081,-0.3081,-0.3081,-0.3081,-0.3054,-0.3053,-0.3053,-0.3052,0,0,-0.305,-0.305,0,0,0,0,0,0,0,0,-0.3141,-0.3138,-0.3116,-0.3114,-0.3113,-0.3094,-0.3102,-0.3084,-0.3081,-0.3093,-0.3081,-0.308,-0.3067,-0.3065,-0.3061,-0.3051,-0.305,-0.305,-0.3049,-0.3049,-0.3049,0,0,0,0,0,0,0,-0.3142,-0.3139,-0.3116,-0.3115,-0.3114,-0.3108,-0.3105,-0.3098,-0.3082,-0.3092,-0.309,-0.3088,-0.3066,-0.3062,-0.306,-0.3049,-0.305,-0.3049,-0.3049,-0.3048,-0.3036,-0.3036,0,0,0,0,0,0,-0.3145,-0.3141,-0.3117,-0.3115,-0.3126,-0.3108,-0.3105,-0.31,-0.3082,-0.3079,-0.3088,-0.3087,-0.3063,-0.3061,-0.3059,-0.3057,-0.3049,-0.3048,-0.3048,-0.3036,-0.3036,-0.3036,0,0,0,0,0,0,-0.3146,-0.3144,-0.3118,-0.3128,-0.3124,-0.3108,-0.3103,-0.31,-0.3095,-0.3079,-0.3076,-0.3086,-0.3063,-0.306,-0.3054,-0.3056,-0.3048,-0.3047,-0.3036,-0.3036,-0.3036,-0.3052,0,0,0,0,0,0,-0.3147,-0.3144,-0.3144,-0.3128,-0.3124,-0.3114,-0.3103,-0.3099,-0.3094,-0.3092,-0.3077,-0.3074,-0.3063,-0.3055,-0.3053,-0.3054,-0.3046,-0.3035,-0.3036,-0.3036,-0.3052,-0.3053,-0.3054,0,0,0,0,0,-0.3148,-0.315,-0.3144,-0.3141,-0.3123,-0.3114,-0.3111,-0.3099,-0.3094,-0.3094,-0.3083,-0.3074,-0.3056,-0.3055,-0.3052,-0.3053,-0.3035,-0.3036,-0.3036,-0.3051,-0.3053,-0.3054,0,0,0,0,0,0,-0.3167,-0.3147,-0.3141,-0.3137,-0.3127,-0.3111,-0.311,-0.3101,-0.3093,-0.3091,-0.3076,-0.3073,-0.3067,-0.3059,-0.3059,-0.3051,-0.3044,-0.3044,-0.3056,-0.3058,-0.306,-0.3062,-0.3046,0,0,0,0,0,-0.317,-0.3165,-0.3148,-0.3146,-0.3141,-0.3126,-0.3122,-0.3113,-0.3102,-0.3098,-0.3086,-0.3076,-0.3067,-0.3062,-0.3054,-0.305,-0.3046,-0.3049,-0.3051,-0.3052,-0.3052,-0.3049,-0.305,-0.3037,-0.3037,-0.3037,0,0,-0.3178,-0.3167,-0.3164,-0.3149,-0.3141,-0.3134,-0.3123,-0.3117,-0.3112,-0.3097,-0.309,-0.3081,-0.3068,-0.3062,-0.3059,-0.3056,-0.3055,-0.3053,-0.3054,-0.3053,-0.3049,-0.305,-0.3051,-0.3038,-0.3038,-0.3038,0,0,-0.3188,-0.3179,-0.3177,-0.3168,-0.3154,-0.3144,-0.3144,-0.3128,-0.3121,-0.3114,-0.3102,-0.3095,-0.3082,-0.3072,-0.3066,-0.3071,-0.3063,-0.3069,-0.3077,-0.3073,-0.3074,-0.3075,-0.3076,-0.3077,-0.3069,-0.3069,-0.3069,0,-0.3199,-0.319,-0.3176,-0.3171,-0.3164,-0.315,-0.3146,-0.3138,-0.3123,-0.3118,-0.3114,-0.3096,-0.3086,-0.3078,-0.3079,-0.3075,-0.3073,-0.3071,-0.3075,-0.3076,-0.3077,-0.3078,-0.3078,-0.307,-0.307,-0.307,-0.307,0,-0.3203,-0.3197,-0.3196,-0.3181,-0.3175,-0.317,-0.3155,-0.315,-0.3142,-0.3132,-0.3124,-0.3111,-0.31,-0.3097,-0.3089,-0.3087,-0.3085,-0.3078,-0.3071,-0.3079,-0.3079,-0.308,-0.3071,-0.3071,-0.3071,-0.3071,0,0,-0.3226,-0.3203,-0.3203,-0.3195,-0.3179,-0.3173,-0.3168,-0.3156,-0.3152,-0.3141,-0.3135,-0.3123,-0.3117,-0.3109,-0.31,-0.3097,-0.3101,-0.309,-0.309,-0.3092,-0.3097,-0.3103,-0.3103,-0.3095,-0.3095,-0.3095,-0.3098,0,-0.3233,-0.3223,-0.321,-0.3204,-0.3197,-0.3182,-0.3177,-0.3166,-0.3156,-0.3149,-0.3137,-0.3129,-0.3121,-0.3117,-0.3113,-0.3101,-0.3102,-0.3101,-0.3089,-0.3089,-0.3093,-0.3104,-0.3109,-0.3114,-0.3099,-0.3099,-0.3099,0,-0.3241,-0.3231,-0.3224,-0.3207,-0.3204,-0.32,-0.3187,-0.318,-0.3167,-0.316,-0.3151,-0.3141,-0.3133,-0.3127,-0.3116,-0.3115,-0.3109,-0.3103,-0.3103,-0.3101,-0.3094,-0.3102,-0.3115,-0.3115,-0.3099,-0.3099,-0.3099,0,-0.3257,-0.3242,-0.3236,-0.323,-0.321,-0.3208,-0.3199,-0.3186,-0.3179,-0.3168,-0.3164,-0.3152,-0.3145,-0.3136,-0.3122,-0.3119,-0.3112,-0.3105,-0.3106,-0.3106,-0.3105,-0.3106,-0.3117,-0.3102,-0.3102,-0.3102,-0.3102,0,-0.3267,-0.3264,-0.3243,-0.3239,-0.3234,-0.3218,-0.3214,-0.3204,-0.3192,-0.3185,-0.3171,-0.3165,-0.3147,-0.3139,-0.3128,-0.312,-0.3117,-0.3111,-0.3108,-0.3112,-0.3113,-0.3108,-0.3107,-0.3102,-0.3102,-0.3102,-0.3102,0,-0.3285,-0.3271,-0.3263,-0.3245,-0.324,-0.3237,-0.3221,-0.3216,-0.3205,-0.3197,-0.3194,-0.3177,-0.3166,-0.3151,-0.3135,-0.3128,-0.3121,-0.3117,-0.3126,-0.3124,-0.3126,-0.3126,-0.3134,-0.3134,-0.312,-0.312,-0.312,0,-0.3292,-0.3289,-0.327,-0.3265,-0.3257,-0.3248,-0.3241,-0.3226,-0.3219,-0.3203,-0.32,-0.3188,-0.3178,-0.3161,-0.3146,-0.3134,-0.3129,-0.3133,-0.3127,-0.3131,-0.3129,-0.3129,-0.3128,-0.3135,-0.3135,-0.3135,-0.3135,0,-0.3307,-0.33,-0.329,-0.3278,-0.327,-0.326,-0.3249,-0.3245,-0.3227,-0.322,-0.3209,-0.3201,-0.3185,-0.3173,-0.3158,-0.3149,-0.3139,-0.3137,-0.3136,-0.3141,-0.3146,-0.3143,-0.3129,-0.3137,-0.3137,-0.3137,-0.3136,-0.3136,-0.3319,-0.3315,-0.3301,-0.3291,-0.3281,-0.3271,-0.3265,-0.3253,-0.3243,-0.3229,-0.322,-0.3209,-0.3194,-0.3174,-0.3165,-0.3156,-0.3152,-0.3151,-0.3151,-0.3151,-0.3152,-0.3147,-0.3153,-0.3153,-0.3153,-0.3153,-0.3153,0,-0.3332,-0.3322,-0.3313,-0.3298,-0.329,-0.3281,-0.3268,-0.3261,-0.3252,-0.3239,-0.3229,-0.3215,-0.3203,-0.3188,-0.3174,-0.317,-0.3165,-0.3167,-0.3167,-0.3165,-0.3157,-0.3158,-0.3171,-0.3171,-0.3171,-0.3171,-0.3171,-0.3171,-0.3338,-0.3331,-0.3322,-0.3309,-0.3299,-0.3288,-0.3281,-0.3271,-0.3261,-0.3247,-0.3237,-0.3226,-0.3212,-0.3197,-0.3186,-0.3181,-0.3177,-0.318,-0.3174,-0.3167,-0.3166,-0.3164,-0.3165,-0.3179,-0.3179,-0.3183,-0.3183,-0.3183]},{"header":{"parameterUnit":"m.s-1","parameterCategory":1,"la1":30.2991,"la2":30.254,"lo1":-89.0895,"lo2":-89.0444,"dy":0.0017,"dx":0.0017,"nx":28,"ny":28,"refTime":"2024-10-09T03:00:00:Z","depth":0,"parameterNumber":3,"parameterNumberName":"V-component_of_WINDS"},"data":[0,0,0,0,0,0,0,0,0,0,0,0,0,0,0,0,0,0,0,0,0,0,0,0,0,0,0,0,0,0,0,0,0,0,0,0,0,0,0,0,0,0,0,0,0,0,0,0,0,0,0,0,0,0,0,0,0,0,-3.9231,-3.9231,0,-3.9214,-3.9214,-3.9214,-3.9196,-3.9195,-3.9195,-3.9195,-3.9172,-3.9172,-3.9172,0,0,0,0,0,0,0,0,0,0,0,0,0,-3.9245,-3.9245,-3.9231,-3.9231,-3.9231,-3.9214,-3.9214,-3.9214,-3.9196,-3.9195,-3.9195,-3.9195,-3.9172,-3.9172,-3.9172,0,0,0,0,0,0,0,0,0,0,0,0,0,-3.9234,-3.9245,-3.9231,-3.922,-3.9219,-3.9214,-3.9214,-3.9214,-3.9196,-3.9195,-3.9195,-3.9195,-3.9173,-3.9172,-3.9171,-3.9175,0,0,-3.917,-3.9169,0,0,0,0,0,0,0,0,-3.9235,-3.9234,-3.9222,-3.9221,-3.9219,-3.9207,-3.9211,-3.9201,-3.9196,-3.9204,-3.9195,-3.9195,-3.9184,-3.9182,-3.918,-3.9174,-3.9173,-3.917,-3.9169,-3.9169,-3.9169,0,0,0,0,0,0,0,-3.9236,-3.9235,-3.9224,-3.9222,-3.922,-3.9215,-3.9213,-3.9209,-3.9196,-3.9204,-3.9202,-3.9201,-3.9183,-3.918,-3.9179,-3.9173,-3.917,-3.9169,-3.9169,-3.9169,-3.9172,-3.9172,0,0,0,0,0,0,-3.9239,-3.9235,-3.9225,-3.9224,-3.9227,-3.9215,-3.9213,-3.9211,-3.9196,-3.9194,-3.9201,-3.92,-3.9181,-3.918,-3.9178,-3.9183,-3.9169,-3.9169,-3.9168,-3.9171,-3.9172,-3.9172,0,0,0,0,0,0,-3.9239,-3.9238,-3.9226,-3.9229,-3.9227,-3.9215,-3.9213,-3.9211,-3.9208,-3.9194,-3.9192,-3.9201,-3.9181,-3.9179,-3.9177,-3.9182,-3.9168,-3.9168,-3.9171,-3.9171,-3.9172,-3.9192,0,0,0,0,0,0,-3.924,-3.9238,-3.924,-3.923,-3.9227,-3.9226,-3.9214,-3.9211,-3.9208,-3.9206,-3.9193,-3.9191,-3.9181,-3.9178,-3.9176,-3.9181,-3.9167,-3.917,-3.9171,-3.9172,-3.919,-3.9193,-3.9195,0,0,0,0,0,-3.924,-3.9245,-3.924,-3.9239,-3.9229,-3.9226,-3.9224,-3.9214,-3.9208,-3.921,-3.9201,-3.9191,-3.9182,-3.9178,-3.9176,-3.918,-3.917,-3.9171,-3.9172,-3.9189,-3.9192,-3.9195,0,0,0,0,0,0,-3.9254,-3.9243,-3.9238,-3.9239,-3.9234,-3.9223,-3.9224,-3.9217,-3.9212,-3.921,-3.9196,-3.9193,-3.9193,-3.9186,-3.9182,-3.9184,-3.9174,-3.9175,-3.9189,-3.9191,-3.9193,-3.9195,-3.9167,0,0,0,0,0,-3.9257,-3.9257,-3.9247,-3.9249,-3.9247,-3.9236,-3.9234,-3.9227,-3.922,-3.9217,-3.9208,-3.9201,-3.9196,-3.9193,-3.9188,-3.919,-3.9187,-3.9192,-3.9194,-3.9196,-3.9197,-3.9199,-3.9201,-3.9175,-3.9175,-3.9175,0,0,-3.9264,-3.9258,-3.9258,-3.9252,-3.9247,-3.9246,-3.9234,-3.9233,-3.9232,-3.9216,-3.9215,-3.9208,-3.9199,-3.9199,-3.9199,-3.9194,-3.9203,-3.9197,-3.9199,-3.9198,-3.92,-3.9202,-3.9204,-3.9176,-3.9176,-3.9176,0,0,-3.9275,-3.9271,-3.9273,-3.9269,-3.9263,-3.9256,-3.9257,-3.9248,-3.9243,-3.9242,-3.9231,-3.9229,-3.9221,-3.9216,-3.9212,-3.9225,-3.9216,-3.9223,-3.9235,-3.9237,-3.9239,-3.9241,-3.9246,-3.9248,-3.9224,-3.9224,-3.9224,0,-3.9283,-3.9283,-3.9274,-3.9275,-3.9273,-3.9262,-3.9264,-3.926,-3.9251,-3.925,-3.9245,-3.9237,-3.9229,-3.9229,-3.9233,-3.9229,-3.923,-3.9224,-3.924,-3.9241,-3.9243,-3.9248,-3.925,-3.9225,-3.9225,-3.9225,-3.9225,0,-3.9294,-3.9294,-3.9296,-3.9292,-3.929,-3.9291,-3.9282,-3.9281,-3.9275,-3.9269,-3.9269,-3.926,-3.9254,-3.9254,-3.9246,-3.9253,-3.925,-3.9242,-3.9232,-3.9246,-3.9251,-3.9253,-3.9227,-3.9226,-3.9226,-3.9226,0,0,-3.9311,-3.9305,-3.9306,-3.9304,-3.9298,-3.9297,-3.9298,-3.9295,-3.9295,-3.9289,-3.929,-3.9285,-3.9279,-3.9275,-3.9267,-3.9269,-3.9282,-3.9261,-3.9261,-3.9266,-3.929,-3.9296,-3.9299,-3.9276,-3.9276,-3.9276,-3.9291,0,-3.9322,-3.9325,-3.9319,-3.9324,-3.9324,-3.9315,-3.9316,-3.9312,-3.9307,-3.9305,-3.9299,-3.9296,-3.9288,-3.9286,-3.9287,-3.928,-3.9286,-3.9278,-3.9276,-3.9276,-3.9279,-3.9301,-3.9307,-3.9321,-3.9293,-3.9293,-3.9293,0,-3.9334,-3.9334,-3.9339,-3.9335,-3.9334,-3.9336,-3.9333,-3.9332,-3.9328,-3.9324,-3.9321,-3.9313,-3.9314,-3.9305,-3.9305,-3.9301,-3.9299,-3.9296,-3.9296,-3.9295,-3.9285,-3.9301,-3.9325,-3.9327,-3.9296,-3.9295,-3.9295,0,-3.9348,-3.9348,-3.9351,-3.935,-3.9345,-3.9347,-3.9344,-3.9339,-3.9339,-3.9336,-3.9335,-3.9332,-3.933,-3.9328,-3.9319,-3.9313,-3.9321,-3.9311,-3.9318,-3.9318,-3.9319,-3.9319,-3.9344,-3.9318,-3.9318,-3.9318,-3.9318,0,-3.9361,-3.9364,-3.9358,-3.936,-3.9364,-3.9357,-3.9361,-3.9358,-3.9354,-3.9355,-3.9346,-3.9347,-3.9336,-3.9335,-3.9328,-3.9331,-3.933,-3.9326,-3.9325,-3.9327,-3.9328,-3.9326,-3.9325,-3.9319,-3.9319,-3.9319,-3.9318,0,-3.9376,-3.9372,-3.9375,-3.9371,-3.9371,-3.9374,-3.937,-3.9372,-3.9368,-3.9369,-3.9369,-3.9361,-3.9361,-3.9353,-3.9349,-3.9345,-3.935,-3.9346,-3.9352,-3.9351,-3.9359,-3.9358,-3.9383,-3.9386,-3.9358,-3.9358,-3.9359,0,-3.9384,-3.9387,-3.9385,-3.9386,-3.9385,-3.9387,-3.9387,-3.938,-3.9381,-3.9378,-3.938,-3.9379,-3.9378,-3.9378,-3.9371,-3.9369,-3.9365,-3.9374,-3.9364,-3.9368,-3.9366,-3.9366,-3.9367,-3.9376,-3.9376,-3.9376,-3.9377,0,-3.94,-3.9398,-3.94,-3.9401,-3.9403,-3.9403,-3.9402,-3.9403,-3.9396,-3.9397,-3.9398,-3.9397,-3.9396,-3.9395,-3.9393,-3.9389,-3.9382,-3.938,-3.9382,-3.9385,-3.9389,-3.9388,-3.9358,-3.9379,-3.9379,-3.9379,-3.9379,-3.9378,-3.9412,-3.9415,-3.9415,-3.9418,-3.9417,-3.9418,-3.942,-3.9418,-3.9419,-3.9419,-3.9415,-3.9416,-3.9413,-3.941,-3.9407,-3.9408,-3.9403,-3.9405,-3.9406,-3.9407,-3.9409,-3.9389,-3.9407,-3.9407,-3.9407,-3.9407,-3.9407,0,-3.9428,-3.9428,-3.9431,-3.9432,-3.9434,-3.943,-3.943,-3.9432,-3.9434,-3.9433,-3.9434,-3.9435,-3.9436,-3.9431,-3.943,-3.9432,-3.9429,-3.9432,-3.9432,-3.9431,-3.9413,-3.9412,-3.9435,-3.9435,-3.9435,-3.9435,-3.9435,-3.9435,-3.9436,-3.9442,-3.9442,-3.9448,-3.9448,-3.9451,-3.9452,-3.9453,-3.9452,-3.9455,-3.9457,-3.9454,-3.9452,-3.9452,-3.9452,-3.945,-3.9451,-3.9455,-3.9453,-3.9435,-3.9432,-3.943,-3.9429,-3.9455,-3.9455,-3.9472,-3.9472,-3.9472]}]]